owner,sensor,date,latitude,longitude,vertical_datum,direction_of_sea_water_velocity,sea_water_speed,upward_sea_water_velocity,qcFlag 
TABS,ioos:station:wmo:42047:1,2017-02-01T00:00:00Z,27.8966,-93.5973,2.0,97.79578437,33.69138317,-99999.0,'11111222,11111222,99999999' 
TABS,ioos:station:wmo:42047:1,2017-02-01T00:30:00Z,27.8966,-93.5973,2.0,101.5020631,30.99240713,-99999.0,'11111222,11111222,99999999' 
TABS,ioos:station:wmo:42047:1,2017-02-01T01:00:00Z,27.8966,-93.5973,2.0,98.10418115,31.2824072,-99999.0,'11111222,11111222,99999999' 
TABS,ioos:station:wmo:42047:1,2017-02-01T01:30:00Z,27.8966,-93.5973,2.0,102.3202089,32.47795868,-99999.0,'11111222,11111222,99999999' 
TABS,ioos:station:wmo:42047:1,2017-02-01T02:00:00Z,27.8966,-93.5973,2.0,98.99651668,31.14312926,-99999.0,'11111222,11111222,99999999' 
TABS,ioos:station:wmo:42047:1,2017-02-01T02:30:00Z,27.8966,-93.5973,2.0,102.0457593,30.23575698,-99999.0,'11111222,11111222,99999999' 
TABS,ioos:station:wmo:42047:1,2017-02-01T03:00:00Z,27.8966,-93.5973,2.0,99.66025315,31.40532598,-99999.0,'11111222,11111222,99999999' 
TABS,ioos:station:wmo:42047:1,2017-02-01T03:30:00Z,27.8966,-93.5973,2.0,95.85176952,31.09202148,-99999.0,'11111222,11111222,99999999' 
TABS,ioos:station:wmo:42047:1,2017-02-01T04:00:00Z,27.8966,-93.5973,2.0,100.1239644,29.46883947,-99999.0,'11111222,11111222,99999999' 
TABS,ioos:station:wmo:42047:1,2017-02-01T04:30:00Z,27.8966,-93.5973,2.0,100.9036141,29.86923836,-99999.0,'11111222,11111222,99999999' 
TABS,ioos:station:wmo:42047:1,2017-02-01T05:00:00Z,27.8966,-93.5973,2.0,99.56414683,27.74566092,-99999.0,'11111222,11111222,99999999' 
TABS,ioos:station:wmo:42047:1,2017-02-01T05:30:00Z,27.8966,-93.5973,2.0,104.3594549,29.23328411,-99999.0,'11111222,11111222,99999999' 
TABS,ioos:station:wmo:42047:1,2017-02-01T06:00:00Z,27.8966,-93.5973,2.0,108.095805,27.78425813,-99999.0,'11111222,11111222,99999999' 
TABS,ioos:station:wmo:42047:1,2017-02-01T06:30:00Z,27.8966,-93.5973,2.0,104.351826,25.53696341,-99999.0,'11111222,11111222,99999999' 
TABS,ioos:station:wmo:42047:1,2017-02-01T07:00:00Z,27.8966,-93.5973,2.0,98.65762789,24.11477763,-99999.0,'11111222,11111222,99999999' 
TABS,ioos:station:wmo:42047:1,2017-02-01T07:30:00Z,27.8966,-93.5973,2.0,98.34106057,21.50750567,-99999.0,'11111222,11111222,99999999' 
TABS,ioos:station:wmo:42047:1,2017-02-01T08:00:00Z,27.8966,-93.5973,2.0,98.91391203,22.32969324,-99999.0,'11111222,11111222,99999999' 
TABS,ioos:station:wmo:42047:1,2017-02-01T08:30:00Z,27.8966,-93.5973,2.0,99.96626439,21.49435507,-99999.0,'11111222,11111222,99999999' 
TABS,ioos:station:wmo:42047:1,2017-02-01T09:00:00Z,27.8966,-93.5973,2.0,93.66443293,21.90478487,-99999.0,'11111222,11111222,99999999' 
TABS,ioos:station:wmo:42047:1,2017-02-01T09:30:00Z,27.8966,-93.5973,2.0,106.3457529,18.47682061,-99999.0,'11111222,11111222,99999999' 
TABS,ioos:station:wmo:42047:1,2017-02-01T10:00:00Z,27.8966,-93.5973,2.0,96.54589144,24.2984053,-99999.0,'11111222,11111222,99999999' 
TABS,ioos:station:wmo:42047:1,2017-02-01T10:30:00Z,27.8966,-93.5973,2.0,94.49940391,22.68992728,-99999.0,'11111222,11111222,99999999' 
TABS,ioos:station:wmo:42047:1,2017-02-01T11:00:00Z,27.8966,-93.5973,2.0,101.3933543,20.19802218,-99999.0,'11111222,11111222,99999999' 
TABS,ioos:station:wmo:42047:1,2017-02-01T11:30:00Z,27.8966,-93.5973,2.0,107.4493258,21.50983264,-99999.0,'11111222,11111222,99999999' 
TABS,ioos:station:wmo:42047:1,2017-02-01T12:00:00Z,27.8966,-93.5973,2.0,98.37324854,20.32667459,-99999.0,'11111222,11111222,99999999' 
TABS,ioos:station:wmo:42047:1,2017-02-01T12:30:00Z,27.8966,-93.5973,2.0,116.100403,18.75228253,-99999.0,'11111222,11111222,99999999' 
TABS,ioos:station:wmo:42047:1,2017-02-01T13:00:00Z,27.8966,-93.5973,2.0,103.3937718,20.33303962,-99999.0,'11111222,11111222,99999999' 
TABS,ioos:station:wmo:42047:1,2017-02-01T13:30:00Z,27.8966,-93.5973,2.0,112.0289192,19.16948095,-99999.0,'11111222,11111222,99999999' 
TABS,ioos:station:wmo:42047:1,2017-02-01T14:00:00Z,27.8966,-93.5973,2.0,110.4751092,19.89701485,-99999.0,'11111222,11111222,99999999' 
TABS,ioos:station:wmo:42047:1,2017-02-01T14:30:00Z,27.8966,-93.5973,2.0,118.6554062,21.33286901,-99999.0,'11111222,11111222,99999999' 
TABS,ioos:station:wmo:42047:1,2017-02-01T15:00:00Z,27.8966,-93.5973,2.0,116.9465909,18.80127655,-99999.0,'11111222,11111222,99999999' 
TABS,ioos:station:wmo:42047:1,2017-02-01T15:30:00Z,27.8966,-93.5973,2.0,116.5757427,23.82754079,-99999.0,'11111222,11111222,99999999' 
TABS,ioos:station:wmo:42047:1,2017-02-01T16:00:00Z,27.8966,-93.5973,2.0,115.4718389,20.15958581,-99999.0,'11111222,11111222,99999999' 
TABS,ioos:station:wmo:42047:1,2017-02-01T16:30:00Z,27.8966,-93.5973,2.0,110.6853182,21.26057854,-99999.0,'11111222,11111222,99999999' 
TABS,ioos:station:wmo:42047:1,2017-02-01T17:00:00Z,27.8966,-93.5973,2.0,116.477448,17.56209839,-99999.0,'11111222,11111222,99999999' 
TABS,ioos:station:wmo:42047:1,2017-02-01T17:30:00Z,27.8966,-93.5973,2.0,111.7854578,20.07366683,-99999.0,'11111222,11111222,99999999' 
TABS,ioos:station:wmo:42047:1,2017-02-01T18:00:00Z,27.8966,-93.5973,2.0,114.9914025,19.0540127,-99999.0,'11111222,11111222,99999999' 
TABS,ioos:station:wmo:42047:1,2017-02-01T18:30:00Z,27.8966,-93.5973,2.0,112.3101321,20.49414551,-99999.0,'11111222,11111222,99999999' 
TABS,ioos:station:wmo:42047:1,2017-02-01T19:00:00Z,27.8966,-93.5973,2.0,113.9806808,22.3162945,-99999.0,'11111222,11111222,99999999' 
TABS,ioos:station:wmo:42047:1,2017-02-01T19:30:00Z,27.8966,-93.5973,2.0,115.9190418,22.21451102,-99999.0,'11111222,11111222,99999999' 
TABS,ioos:station:wmo:42047:1,2017-02-01T20:00:00Z,27.8966,-93.5973,2.0,113.9364956,24.67189899,-99999.0,'11111222,11111222,99999999' 
TABS,ioos:station:wmo:42047:1,2017-02-01T20:30:00Z,27.8966,-93.5973,2.0,117.441956,21.33011486,-99999.0,'11111222,11111222,99999999' 
TABS,ioos:station:wmo:42047:1,2017-02-01T21:00:00Z,27.8966,-93.5973,2.0,110.390497,20.66487116,-99999.0,'11111222,11111222,99999999' 
TABS,ioos:station:wmo:42047:1,2017-02-01T21:30:00Z,27.8966,-93.5973,2.0,100.5070018,22.81250753,-99999.0,'11111222,11111222,99999999' 
TABS,ioos:station:wmo:42047:1,2017-02-01T22:00:00Z,27.8966,-93.5973,2.0,102.6013116,22.27660656,-99999.0,'11111222,11111222,99999999' 
TABS,ioos:station:wmo:42047:1,2017-02-01T22:30:00Z,27.8966,-93.5973,2.0,111.5415597,22.11468517,-99999.0,'11111222,11111222,99999999' 
TABS,ioos:station:wmo:42047:1,2017-02-01T23:00:00Z,27.8966,-93.5973,2.0,92.92252503,29.02775396,-99999.0,'11111222,11111222,99999999' 
TABS,ioos:station:wmo:42047:1,2017-02-01T23:30:00Z,27.8966,-93.5973,2.0,103.1292447,27.42693931,-99999.0,'11111222,11111222,99999999' 
TABS,ioos:station:wmo:42047:1,2017-02-02T00:00:00Z,27.8966,-93.5973,2.0,106.5478046,25.73592431,-99999.0,'11111222,11111222,99999999' 
TABS,ioos:station:wmo:42047:1,2017-02-02T00:30:00Z,27.8966,-93.5973,2.0,106.2713343,24.62640047,-99999.0,'11111222,11111222,99999999' 
TABS,ioos:station:wmo:42047:1,2017-02-02T01:00:00Z,27.8966,-93.5973,2.0,104.0073802,28.91995159,-99999.0,'11111222,11111222,99999999' 
TABS,ioos:station:wmo:42047:1,2017-02-02T01:30:00Z,27.8966,-93.5973,2.0,108.0985124,30.16232418,-99999.0,'11111222,11111222,99999999' 
TABS,ioos:station:wmo:42047:1,2017-02-02T02:00:00Z,27.8966,-93.5973,2.0,110.8690961,32.98385817,-99999.0,'11111222,11111222,99999999' 
TABS,ioos:station:wmo:42047:1,2017-02-02T02:30:00Z,27.8966,-93.5973,2.0,110.2424524,28.87331294,-99999.0,'11111222,11111222,99999999' 
TABS,ioos:station:wmo:42047:1,2017-02-02T03:00:00Z,27.8966,-93.5973,2.0,115.8714391,27.34017008,-99999.0,'11111222,11111222,99999999' 
TABS,ioos:station:wmo:42047:1,2017-02-02T03:30:00Z,27.8966,-93.5973,2.0,115.6409459,26.34430679,-99999.0,'11111222,11111222,99999999' 
TABS,ioos:station:wmo:42047:1,2017-02-02T04:00:00Z,27.8966,-93.5973,2.0,114.6837628,26.29244188,-99999.0,'11111222,11111222,99999999' 
TABS,ioos:station:wmo:42047:1,2017-02-02T04:30:00Z,27.8966,-93.5973,2.0,113.3120389,25.85034816,-99999.0,'11111222,11111222,99999999' 
TABS,ioos:station:wmo:42047:1,2017-02-02T05:00:00Z,27.8966,-93.5973,2.0,112.0591549,28.06442054,-99999.0,'11111222,11111222,99999999' 
TABS,ioos:station:wmo:42047:1,2017-02-02T05:30:00Z,27.8966,-93.5973,2.0,111.5500973,27.52402768,-99999.0,'11111222,11111222,99999999' 
TABS,ioos:station:wmo:42047:1,2017-02-02T06:00:00Z,27.8966,-93.5973,2.0,108.6777968,26.85430319,-99999.0,'11111222,11111222,99999999' 
TABS,ioos:station:wmo:42047:1,2017-02-02T06:30:00Z,27.8966,-93.5973,2.0,104.2168901,27.68800462,-99999.0,'11111222,11111222,99999999' 
TABS,ioos:station:wmo:42047:1,2017-02-02T07:00:00Z,27.8966,-93.5973,2.0,101.5761328,27.85663655,-99999.0,'11111222,11111222,99999999' 
TABS,ioos:station:wmo:42047:1,2017-02-02T07:30:00Z,27.8966,-93.5973,2.0,98.29020946,27.32554117,-99999.0,'11111222,11111222,99999999' 
TABS,ioos:station:wmo:42047:1,2017-02-02T08:00:00Z,27.8966,-93.5973,2.0,99.02817216,27.33869236,-99999.0,'11111222,11111222,99999999' 
TABS,ioos:station:wmo:42047:1,2017-02-02T08:30:00Z,27.8966,-93.5973,2.0,100.3048224,25.37937154,-99999.0,'11111222,11111222,99999999' 
TABS,ioos:station:wmo:42047:1,2017-02-02T09:00:00Z,27.8966,-93.5973,2.0,101.0601675,25.64635062,-99999.0,'11111222,11111222,99999999' 
TABS,ioos:station:wmo:42047:1,2017-02-02T09:30:00Z,27.8966,-93.5973,2.0,95.7178001,23.68785554,-99999.0,'11111222,11111222,99999999' 
TABS,ioos:station:wmo:42047:1,2017-02-02T10:00:00Z,27.8966,-93.5973,2.0,96.19704483,25.19723993,-99999.0,'11111222,11111222,99999999' 
TABS,ioos:station:wmo:42047:1,2017-02-02T10:30:00Z,27.8966,-93.5973,2.0,95.26735015,24.18211736,-99999.0,'11111222,11111222,99999999' 
TABS,ioos:station:wmo:42047:1,2017-02-02T11:00:00Z,27.8966,-93.5973,2.0,94.87165238,23.78592861,-99999.0,'11111222,11111222,99999999' 
TABS,ioos:station:wmo:42047:1,2017-02-02T11:30:00Z,27.8966,-93.5973,2.0,95.81166189,25.38045311,-99999.0,'11111222,11111222,99999999' 
TABS,ioos:station:wmo:42047:1,2017-02-02T12:00:00Z,27.8966,-93.5973,2.0,96.88013582,24.95973758,-99999.0,'11111222,11111222,99999999' 
TABS,ioos:station:wmo:42047:1,2017-02-02T12:30:00Z,27.8966,-93.5973,2.0,94.75866538,19.16606637,-99999.0,'11111222,11111222,99999999' 
TABS,ioos:station:wmo:42047:1,2017-02-02T13:00:00Z,27.8966,-93.5973,2.0,97.77532597,25.35309251,-99999.0,'11111222,11111222,99999999' 
TABS,ioos:station:wmo:42047:1,2017-02-02T13:30:00Z,27.8966,-93.5973,2.0,98.32734247,24.23552145,-99999.0,'11111222,11111222,99999999' 
TABS,ioos:station:wmo:42047:1,2017-02-02T14:00:00Z,27.8966,-93.5973,2.0,109.0836828,23.45927961,-99999.0,'11111222,11111222,99999999' 
TABS,ioos:station:wmo:42047:1,2017-02-02T14:30:00Z,27.8966,-93.5973,2.0,108.6992872,23.98613141,-99999.0,'11111222,11111222,99999999' 
TABS,ioos:station:wmo:42047:1,2017-02-02T15:00:00Z,27.8966,-93.5973,2.0,109.271409,20.36091354,-99999.0,'11111222,11111222,99999999' 
TABS,ioos:station:wmo:42047:1,2017-02-02T15:30:00Z,27.8966,-93.5973,2.0,113.2745167,23.76385911,-99999.0,'11111222,11111222,99999999' 
TABS,ioos:station:wmo:42047:1,2017-02-02T16:00:00Z,27.8966,-93.5973,2.0,117.0676654,23.44831124,-99999.0,'11111222,11111222,99999999' 
TABS,ioos:station:wmo:42047:1,2017-02-02T16:30:00Z,27.8966,-93.5973,2.0,111.7124338,22.73285068,-99999.0,'11111222,11111222,99999999' 
TABS,ioos:station:wmo:42047:1,2017-02-02T17:00:00Z,27.8966,-93.5973,2.0,115.2914657,22.93877939,-99999.0,'11111222,11111222,99999999' 
TABS,ioos:station:wmo:42047:1,2017-02-02T17:30:00Z,27.8966,-93.5973,2.0,111.1356056,22.21437598,-99999.0,'11111222,11111222,99999999' 
TABS,ioos:station:wmo:42047:1,2017-02-02T18:00:00Z,27.8966,-93.5973,2.0,102.9648492,21.66221826,-99999.0,'11111222,11111222,99999999' 
TABS,ioos:station:wmo:42047:1,2017-02-02T18:30:00Z,27.8966,-93.5973,2.0,92.43397635,22.84060638,-99999.0,'11111222,11111222,99999999' 
TABS,ioos:station:wmo:42047:1,2017-02-02T19:00:00Z,27.8966,-93.5973,2.0,87.05286729,24.3121554,-99999.0,'11111222,11111222,99999999' 
TABS,ioos:station:wmo:42047:1,2017-02-02T19:30:00Z,27.8966,-93.5973,2.0,81.50783645,23.49762754,-99999.0,'11111222,11111222,99999999' 
TABS,ioos:station:wmo:42047:1,2017-02-02T20:00:00Z,27.8966,-93.5973,2.0,83.15444645,24.41404719,-99999.0,'11111222,11111222,99999999' 
TABS,ioos:station:wmo:42047:1,2017-02-02T20:30:00Z,27.8966,-93.5973,2.0,83.43207902,25.00410366,-99999.0,'11111222,11111222,99999999' 
TABS,ioos:station:wmo:42047:1,2017-02-02T21:00:00Z,27.8966,-93.5973,2.0,80.49030246,23.84772526,-99999.0,'11111222,11111222,99999999' 
TABS,ioos:station:wmo:42047:1,2017-02-02T21:30:00Z,27.8966,-93.5973,2.0,79.26260411,26.30048669,-99999.0,'11111222,11111222,99999999' 
TABS,ioos:station:wmo:42047:1,2017-02-02T22:00:00Z,27.8966,-93.5973,2.0,72.3890528,27.26797756,-99999.0,'11111222,11111222,99999999' 
TABS,ioos:station:wmo:42047:1,2017-02-02T22:30:00Z,27.8966,-93.5973,2.0,76.27005428,29.49275335,-99999.0,'11111222,11111222,99999999' 
TABS,ioos:station:wmo:42047:1,2017-02-02T23:00:00Z,27.8966,-93.5973,2.0,79.25774664,28.70300507,-99999.0,'11111222,11111222,99999999' 
TABS,ioos:station:wmo:42047:1,2017-02-02T23:30:00Z,27.8966,-93.5973,2.0,94.71078071,29.71036351,-99999.0,'11111222,11111222,99999999' 
TABS,ioos:station:wmo:42047:1,2017-02-03T00:00:00Z,27.8966,-93.5973,2.0,98.74181467,30.20083774,-99999.0,'11111222,11111222,99999999' 
TABS,ioos:station:wmo:42047:1,2017-02-03T00:30:00Z,27.8966,-93.5973,2.0,88.79472273,31.37694217,-99999.0,'11111222,11111222,99999999' 
TABS,ioos:station:wmo:42047:1,2017-02-03T01:00:00Z,27.8966,-93.5973,2.0,85.8614456,30.06840535,-99999.0,'11111222,11111222,99999999' 
TABS,ioos:station:wmo:42047:1,2017-02-03T01:30:00Z,27.8966,-93.5973,2.0,89.48874963,33.62133846,-99999.0,'11111222,11111222,99999999' 
TABS,ioos:station:wmo:42047:1,2017-02-03T02:00:00Z,27.8966,-93.5973,2.0,88.19126491,33.26657482,-99999.0,'11111222,11111222,99999999' 
TABS,ioos:station:wmo:42047:1,2017-02-03T02:30:00Z,27.8966,-93.5973,2.0,93.02685984,36.36072744,-99999.0,'11111222,11111222,99999999' 
TABS,ioos:station:wmo:42047:1,2017-02-03T03:00:00Z,27.8966,-93.5973,2.0,97.17219543,37.64455472,-99999.0,'11111222,11111222,99999999' 
TABS,ioos:station:wmo:42047:1,2017-02-03T03:30:00Z,27.8966,-93.5973,2.0,95.2468171,37.61761821,-99999.0,'11111222,11111222,99999999' 
TABS,ioos:station:wmo:42047:1,2017-02-03T04:00:00Z,27.8966,-93.5973,2.0,127.2855109,36.66296496,-99999.0,'11111222,11111222,99999999' 
TABS,ioos:station:wmo:42047:1,2017-02-03T04:30:00Z,27.8966,-93.5973,2.0,98.33285556,36.36390106,-99999.0,'11111222,11111222,99999999' 
TABS,ioos:station:wmo:42047:1,2017-02-03T05:00:00Z,27.8966,-93.5973,2.0,98.82579119,37.73682817,-99999.0,'11111222,11111222,99999999' 
TABS,ioos:station:wmo:42047:1,2017-02-03T05:30:00Z,27.8966,-93.5973,2.0,94.82175514,34.38167681,-99999.0,'11111222,11111222,99999999' 
TABS,ioos:station:wmo:42047:1,2017-02-03T06:00:00Z,27.8966,-93.5973,2.0,97.08326944,28.95095508,-99999.0,'11111222,11111222,99999999' 
TABS,ioos:station:wmo:42047:1,2017-02-03T06:30:00Z,27.8966,-93.5973,2.0,95.66339301,31.41333475,-99999.0,'11111222,11111222,99999999' 
TABS,ioos:station:wmo:42047:1,2017-02-03T07:00:00Z,27.8966,-93.5973,2.0,96.37934849,30.69003258,-99999.0,'11111222,11111222,99999999' 
TABS,ioos:station:wmo:42047:1,2017-02-03T07:30:00Z,27.8966,-93.5973,2.0,100.6084588,28.35463454,-99999.0,'11111222,11111222,99999999' 
TABS,ioos:station:wmo:42047:1,2017-02-03T08:00:00Z,27.8966,-93.5973,2.0,91.05845963,25.9844338,-99999.0,'11111222,11111222,99999999' 
TABS,ioos:station:wmo:42047:1,2017-02-03T08:30:00Z,27.8966,-93.5973,2.0,87.28868561,27.27052805,-99999.0,'11111222,11111222,99999999' 
TABS,ioos:station:wmo:42047:1,2017-02-03T09:00:00Z,27.8966,-93.5973,2.0,90.46392221,27.17089067,-99999.0,'11111222,11111222,99999999' 
TABS,ioos:station:wmo:42047:1,2017-02-03T09:30:00Z,27.8966,-93.5973,2.0,98.75686301,28.44153653,-99999.0,'11111222,11111222,99999999' 
TABS,ioos:station:wmo:42047:1,2017-02-03T10:00:00Z,27.8966,-93.5973,2.0,98.54694002,26.24142717,-99999.0,'11111222,11111222,99999999' 
TABS,ioos:station:wmo:42047:1,2017-02-03T10:30:00Z,27.8966,-93.5973,2.0,99.35271557,27.50564488,-99999.0,'11111222,11111222,99999999' 
TABS,ioos:station:wmo:42047:1,2017-02-03T11:00:00Z,27.8966,-93.5973,2.0,100.4962743,25.96447188,-99999.0,'11111222,11111222,99999999' 
TABS,ioos:station:wmo:42047:1,2017-02-03T11:30:00Z,27.8966,-93.5973,2.0,88.42345363,23.98908085,-99999.0,'11111222,11111222,99999999' 
TABS,ioos:station:wmo:42047:1,2017-02-03T12:00:00Z,27.8966,-93.5973,2.0,81.02865658,23.598697,-99999.0,'11111222,11111222,99999999' 
TABS,ioos:station:wmo:42047:1,2017-02-03T12:30:00Z,27.8966,-93.5973,2.0,116.6458335,22.18628856,-99999.0,'11111222,11111222,99999999' 
TABS,ioos:station:wmo:42047:1,2017-02-03T13:00:00Z,27.8966,-93.5973,2.0,121.6333547,21.71663418,-99999.0,'11111222,11111222,99999999' 
TABS,ioos:station:wmo:42047:1,2017-02-03T13:30:00Z,27.8966,-93.5973,2.0,129.3871391,24.72586096,-99999.0,'11111222,11111222,99999999' 
TABS,ioos:station:wmo:42047:1,2017-02-03T14:00:00Z,27.8966,-93.5973,2.0,127.605405,24.61402852,-99999.0,'11111222,11111222,99999999' 
TABS,ioos:station:wmo:42047:1,2017-02-03T14:30:00Z,27.8966,-93.5973,2.0,134.3425155,24.03614154,-99999.0,'11111222,11111222,99999999' 
TABS,ioos:station:wmo:42047:1,2017-02-03T15:00:00Z,27.8966,-93.5973,2.0,121.7555113,23.82685879,-99999.0,'11111222,11111222,99999999' 
TABS,ioos:station:wmo:42047:1,2017-02-03T15:30:00Z,27.8966,-93.5973,2.0,154.4030854,23.81752506,-99999.0,'11111222,11111222,99999999' 
TABS,ioos:station:wmo:42047:1,2017-02-03T16:00:00Z,27.8966,-93.5973,2.0,148.5736322,24.43419939,-99999.0,'11111222,11111222,99999999' 
TABS,ioos:station:wmo:42047:1,2017-02-03T16:30:00Z,27.8966,-93.5973,2.0,154.2382707,22.96220373,-99999.0,'11111222,11111222,99999999' 
TABS,ioos:station:wmo:42047:1,2017-02-03T17:00:00Z,27.8966,-93.5973,2.0,159.3413228,22.25072808,-99999.0,'11111222,11111222,99999999' 
TABS,ioos:station:wmo:42047:1,2017-02-03T17:30:00Z,27.8966,-93.5973,2.0,157.8153758,22.77604224,-99999.0,'11111222,11111222,99999999' 
TABS,ioos:station:wmo:42047:1,2017-02-03T18:00:00Z,27.8966,-93.5973,2.0,147.0845902,22.56171979,-99999.0,'11111222,11111222,99999999' 
TABS,ioos:station:wmo:42047:1,2017-02-03T18:30:00Z,27.8966,-93.5973,2.0,150.007877,22.14536746,-99999.0,'11111222,11111222,99999999' 
TABS,ioos:station:wmo:42047:1,2017-02-03T19:00:00Z,27.8966,-93.5973,2.0,156.5047418,19.79077058,-99999.0,'11111222,11111222,99999999' 
TABS,ioos:station:wmo:42047:1,2017-02-03T19:30:00Z,27.8966,-93.5973,2.0,156.9949857,19.80506248,-99999.0,'11111222,11111222,99999999' 
TABS,ioos:station:wmo:42047:1,2017-02-03T20:00:00Z,27.8966,-93.5973,2.0,148.7081775,21.27474794,-99999.0,'11111222,11111222,99999999' 
TABS,ioos:station:wmo:42047:1,2017-02-03T20:30:00Z,27.8966,-93.5973,2.0,151.5302434,20.45343247,-99999.0,'11111222,11111222,99999999' 
TABS,ioos:station:wmo:42047:1,2017-02-03T21:00:00Z,27.8966,-93.5973,2.0,154.2033368,17.67099884,-99999.0,'11111222,11111222,99999999' 
TABS,ioos:station:wmo:42047:1,2017-02-03T21:30:00Z,27.8966,-93.5973,2.0,155.9551278,16.2719544,-99999.0,'11111222,11111222,99999999' 
TABS,ioos:station:wmo:42047:1,2017-02-03T22:00:00Z,27.8966,-93.5973,2.0,160.9613559,17.4124668,-99999.0,'11111222,11111222,99999999' 
TABS,ioos:station:wmo:42047:1,2017-02-03T22:30:00Z,27.8966,-93.5973,2.0,151.0969189,17.97953559,-99999.0,'11111222,11111222,99999999' 
TABS,ioos:station:wmo:42047:1,2017-02-03T23:00:00Z,27.8966,-93.5973,2.0,157.0045814,12.21026208,-99999.0,'11111222,11111222,99999999' 
TABS,ioos:station:wmo:42047:1,2017-02-03T23:30:00Z,27.8966,-93.5973,2.0,150.1224061,14.47365192,-99999.0,'11111222,11111222,99999999' 
TABS,ioos:station:wmo:42047:1,2017-02-04T00:00:00Z,27.8966,-93.5973,2.0,149.5343159,16.172928,-99999.0,'11111222,11111222,99999999' 
TABS,ioos:station:wmo:42047:1,2017-02-04T00:30:00Z,27.8966,-93.5973,2.0,155.7819869,13.21283089,-99999.0,'11111222,11111222,99999999' 
TABS,ioos:station:wmo:42047:1,2017-02-04T01:00:00Z,27.8966,-93.5973,2.0,152.825688,13.88229448,-99999.0,'11111222,11111222,99999999' 
TABS,ioos:station:wmo:42047:1,2017-02-04T01:30:00Z,27.8966,-93.5973,2.0,150.9031882,19.8443468,-99999.0,'11111222,11111222,99999999' 
TABS,ioos:station:wmo:42047:1,2017-02-04T02:00:00Z,27.8966,-93.5973,2.0,142.5582406,16.23480828,-99999.0,'11111222,11111222,99999999' 
TABS,ioos:station:wmo:42047:1,2017-02-04T02:30:00Z,27.8966,-93.5973,2.0,142.1214394,14.54425316,-99999.0,'11111222,11111222,99999999' 
TABS,ioos:station:wmo:42047:1,2017-02-04T03:00:00Z,27.8966,-93.5973,2.0,159.4033516,14.9239204,-99999.0,'11111222,11111222,99999999' 
TABS,ioos:station:wmo:42047:1,2017-02-04T03:30:00Z,27.8966,-93.5973,2.0,138.0446661,14.64364026,-99999.0,'11111222,11111222,99999999' 
TABS,ioos:station:wmo:42047:1,2017-02-04T04:00:00Z,27.8966,-93.5973,2.0,142.6581209,12.62842825,-99999.0,'11111222,11111222,99999999' 
TABS,ioos:station:wmo:42047:1,2017-02-04T04:30:00Z,27.8966,-93.5973,2.0,138.7040743,13.24349274,-99999.0,'11111222,11111222,99999999' 
TABS,ioos:station:wmo:42047:1,2017-02-04T05:00:00Z,27.8966,-93.5973,2.0,146.629158,13.43504745,-99999.0,'11111222,11111222,99999999' 
TABS,ioos:station:wmo:42047:1,2017-02-04T05:30:00Z,27.8966,-93.5973,2.0,141.8373142,12.05706847,-99999.0,'11111222,11111222,99999999' 
TABS,ioos:station:wmo:42047:1,2017-02-04T06:00:00Z,27.8966,-93.5973,2.0,144.1388656,12.15388415,-99999.0,'11111222,11111222,99999999' 
TABS,ioos:station:wmo:42047:1,2017-02-04T06:30:00Z,27.8966,-93.5973,2.0,138.1597592,10.13410578,-99999.0,'11111222,11111222,99999999' 
TABS,ioos:station:wmo:42047:1,2017-02-04T07:00:00Z,27.8966,-93.5973,2.0,151.5161849,7.213126922,-99999.0,'11133222,11111222,99999999' 
TABS,ioos:station:wmo:42047:1,2017-02-04T07:30:00Z,27.8966,-93.5973,2.0,152.2497281,9.514268233,-99999.0,'11133222,11111222,99999999' 
TABS,ioos:station:wmo:42047:1,2017-02-04T08:00:00Z,27.8966,-93.5973,2.0,148.5522953,10.56125939,-99999.0,'11111222,11111222,99999999' 
TABS,ioos:station:wmo:42047:1,2017-02-04T08:30:00Z,27.8966,-93.5973,2.0,155.578688,10.40052403,-99999.0,'11111222,11111222,99999999' 
TABS,ioos:station:wmo:42047:1,2017-02-04T09:00:00Z,27.8966,-93.5973,2.0,159.4273139,8.139041713,-99999.0,'11133222,11111222,99999999' 
TABS,ioos:station:wmo:42047:1,2017-02-04T09:30:00Z,27.8966,-93.5973,2.0,145.8177031,9.041946693,-99999.0,'11133222,11111222,99999999' 
TABS,ioos:station:wmo:42047:1,2017-02-04T10:00:00Z,27.8966,-93.5973,2.0,130.4670181,7.873512558,-99999.0,'11133222,11111222,99999999' 
TABS,ioos:station:wmo:42047:1,2017-02-04T10:30:00Z,27.8966,-93.5973,2.0,119.1359385,4.785530274,-99999.0,'11133222,11111222,99999999' 
TABS,ioos:station:wmo:42047:1,2017-02-04T11:00:00Z,27.8966,-93.5973,2.0,120.1036524,8.912070467,-99999.0,'11133222,11111222,99999999' 
TABS,ioos:station:wmo:42047:1,2017-02-04T11:30:00Z,27.8966,-93.5973,2.0,149.2851321,10.25914226,-99999.0,'11111222,11111222,99999999' 
TABS,ioos:station:wmo:42047:1,2017-02-04T12:00:00Z,27.8966,-93.5973,2.0,103.8999549,6.119191123,-99999.0,'11133222,11111222,99999999' 
TABS,ioos:station:wmo:42047:1,2017-02-04T12:30:00Z,27.8966,-93.5973,2.0,105.5276916,8.479492909,-99999.0,'11133222,11111222,99999999' 
TABS,ioos:station:wmo:42047:1,2017-02-04T13:00:00Z,27.8966,-93.5973,2.0,108.3962708,9.379317672,-99999.0,'11133222,11111222,99999999' 
TABS,ioos:station:wmo:42047:1,2017-02-04T13:30:00Z,27.8966,-93.5973,2.0,108.585882,9.600708307,-99999.0,'11133222,11111222,99999999' 
TABS,ioos:station:wmo:42047:1,2017-02-04T14:00:00Z,27.8966,-93.5973,2.0,112.6534264,10.48923257,-99999.0,'11111222,11111222,99999999' 
TABS,ioos:station:wmo:42047:1,2017-02-04T14:30:00Z,27.8966,-93.5973,2.0,117.6839024,11.4508515,-99999.0,'11111222,11111222,99999999' 
TABS,ioos:station:wmo:42047:1,2017-02-04T15:00:00Z,27.8966,-93.5973,2.0,110.0560478,11.40141219,-99999.0,'11111222,11111222,99999999' 
TABS,ioos:station:wmo:42047:1,2017-02-04T15:30:00Z,27.8966,-93.5973,2.0,126.9920971,12.18202775,-99999.0,'11111222,11111222,99999999' 
TABS,ioos:station:wmo:42047:1,2017-02-04T16:00:00Z,27.8966,-93.5973,2.0,115.1783035,10.71837674,-99999.0,'11111222,11111222,99999999' 